User: anonymous   Login
Location: Unspecified
(0.0000°N, 0.0000°E)
Time: 18:51:18
(UTC+00:00)
Language:

APRIZESAT 7 - Orbit

View from above orbital plane
View from above orbital plane
View from above satellite
View from above satellite

Ground track
Ground track

The orbit data is extracted from the following two-line orbital elements,

1 39416U 13066A   17145.90962534 +.00000121 +00000-0 +20726-4 0  9990
2 39416 097.6358 196.9816 0040469 328.0199 031.8560 14.83692162189898
Epoch (UTC): 25 May 2017 21:49:51
Eccentricity: 0.0040469
inclination: 97.6358°
perigee height: 589 km
apogee height: 646 km
right ascension of ascending node: 196.9816°
argument of perigee: 328.0199°
revolutions per day: 14.83692162
mean anomaly at epoch: 31.8560°
orbit number at epoch: 18989

The dashed part of the orbit path shows where the satellite is in the earth's shadow,  

DLR